| time (UTC) | temp F | wind direction | speed MPH | gust MPH | rain 1hr in | rain 24hr in | rain mn in | humidity % | barometer mb |
| 20260503021011 | 54 | 253 | 2.0 | 3.0 | 0.00 | 0.00 | 0.00 | 55 | 1017.7 |
| 20260503020507 | 54 | 247 | 1.0 | 3.0 | 0.00 | 0.00 | 0.00 | 55 | 1017.7 |
| 20260503020015 | 54 | 244 | 1.0 | 3.0 | 0.00 | 0.00 | 0.00 | 55 | 1017.7 |
| 20260503015506 | 54 | 249 | 2.0 | 5.0 | 0.00 | 0.00 | 0.00 | 55 | 1017.7 |
| 20260503015007 | 54 | 240 | 1.0 | 3.0 | 0.00 | 0.00 | 0.00 | 55 | 1017.8 |
| 20260503014007 | 54 | 224 | 1.0 | 5.0 | 0.00 | 0.00 | 0.00 | 54 | 1017.9 |
| 20260503013505 | 54 | 264 | 3.0 | 7.0 | 0.00 | 0.00 | 0.00 | 54 | 1017.9 |
| 20260503013007 | 54 | 254 | 2.0 | 6.0 | 0.00 | 0.00 | 0.00 | 54 | 1017.9 |
| 20260503012505 | 54 | 262 | 1.0 | 5.0 | 0.00 | 0.00 | 0.00 | 54 | 1018.0 |
| 20260503012007 | 54 | 263 | 2.0 | 5.0 | 0.00 | 0.00 | 0.00 | 54 | 1018.1 |
| 20260503011505 | 54 | 265 | 2.0 | 6.0 | 0.00 | 0.00 | 0.00 | 55 | 1018.1 |
| 20260503011005 | 54 | 24 | 1.0 | 5.0 | 0.00 | 0.00 | 0.00 | 55 | 1018.1 |
| 20260503010506 | 54 | 252 | 1.0 | 5.0 | 0.00 | 0.00 | 0.00 | 55 | 1018.2 |
| 20260503010005 | 54 | 254 | 1.0 | 5.0 | 0.00 | 0.00 | 0.00 | 54 | 1018.2 |
| 20260503005506 | 54 | 232 | 1.0 | 3.0 | 0.00 | 0.00 | 0.00 | 54 | 1018.3 |
| 20260503005007 | 54 | 260 | 1.0 | 3.0 | 0.00 | 0.00 | 0.00 | 54 | 1018.4 |
| 20260503004506 | 54 | 240 | 1.0 | 3.0 | 0.00 | 0.00 | 0.00 | 54 | 1018.4 |
| 20260503003506 | 54 | 245 | 1.0 | 3.0 | 0.00 | 0.00 | 0.00 | 54 | 1018.5 |
| 20260503003008 | 54 | 245 | 2.0 | 3.0 | 0.00 | 0.00 | 0.00 | 53 | 1018.5 |
| 20260503002505 | 54 | 253 | 2.0 | 3.0 | 0.00 | 0.00 | 0.00 | 53 | 1018.5 |
| 20260503002005 | 54 | 247 | 3.0 | 5.0 | 0.00 | 0.00 | 0.00 | 53 | 1018.5 |
| 20260503001507 | 54 | 263 | 3.0 | 8.0 | 0.00 | 0.00 | 0.00 | 52 | 1018.6 |
| 20260503001011 | 54 | 248 | 3.0 | 6.0 | 0.00 | 0.00 | 0.00 | 52 | 1018.6 |
| 20260503000507 | 54 | 262 | 2.0 | 3.0 | 0.00 | 0.00 | 0.00 | 51 | 1018.7 |
| 20260503000006 | 54 | 249 | 1.0 | 3.0 | 0.00 | 0.00 | 0.00 | 51 | 1018.8 |
| 20260502235507 | 54 | 271 | 1.0 | 3.0 | 0.00 | 0.00 | 0.00 | 51 | 1018.8 |
| 20260502234007 | 54 | 229 | 1.0 | 3.0 | 0.00 | 0.00 | 0.00 | 52 | 1019.0 |
| 20260502233506 | 54 | 303 | 1.0 | 5.0 | 0.00 | 0.00 | 0.00 | 52 | 1019.1 |
| 20260502232505 | 54 | 266 | 0.0 | 3.0 | 0.00 | 0.00 | 0.00 | 52 | 1019.2 |
| 20260502232006 | 54 | 260 | 1.0 | 3.0 | 0.00 | 0.00 | 0.00 | 52 | 1019.3 |
| 20260502231506 | 54 | 256 | 1.0 | 3.0 | 0.00 | 0.00 | 0.00 | 52 | 1019.3 |
| 20260502231007 | 53 | 254 | 1.0 | 3.0 | 0.00 | 0.00 | 0.00 | 53 | 1019.4 |
| 20260502230507 | 53 | 238 | 0.0 | 3.0 | 0.00 | 0.00 | 0.00 | 54 | 1019.4 |
| 20260502230007 | 53 | 260 | 1.0 | 5.0 | 0.00 | 0.00 | 0.00 | 54 | 1019.5 |
| 20260502225505 | 54 | 293 | 1.0 | 3.0 | 0.00 | 0.00 | 0.00 | 54 | 1019.5 |
| 20260502225006 | 54 | 244 | 2.0 | 5.0 | 0.00 | 0.00 | 0.00 | 55 | 1019.6 |
| 20260502224505 | 54 | 250 | 0.0 | 3.0 | 0.00 | 0.00 | 0.00 | 56 | 1019.6 |
| 20260502224007 | 54 | 253 | 3.0 | 6.0 | 0.00 | 0.00 | 0.00 | 56 | 1019.7 |
| 20260502222508 | 54 | 250 | 1.0 | 3.0 | 0.00 | 0.00 | 0.00 | 60 | 1019.8 |
| 20260502222007 | 54 | 247 | 2.0 | 6.0 | 0.00 | 0.00 | 0.00 | 61 | 1019.8 |
| 20260502221007 | 53 | 258 | 1.0 | 3.0 | 0.00 | 0.00 | 0.00 | 63 | 1019.9 |
| 20260502220506 | 53 | 251 | 2.0 | 3.0 | 0.00 | 0.00 | 0.00 | 63 | 1019.9 |
| 20260502220011 | 53 | 256 | 2.0 | 5.0 | 0.00 | 0.00 | 0.00 | 64 | 1019.9 |
| 20260502215506 | 53 | 254 | 2.0 | 3.0 | 0.00 | 0.00 | 0.00 | 64 | 1019.9 |
| 20260502215005 | 52 | 251 | 2.0 | 5.0 | 0.00 | 0.00 | 0.00 | 65 | 1020.0 |
| 20260502214506 | 52 | 258 | 3.0 | 5.0 | 0.00 | 0.00 | 0.00 | 66 | 1020.0 |
| 20260502214007 | 52 | 255 | 3.0 | 5.0 | 0.00 | 0.00 | 0.00 | 66 | 1020.0 |
| 20260502213517 | 51 | 249 | 2.0 | 3.0 | 0.00 | 0.00 | 0.00 | 65 | 1020.1 |
| 20260502212506 | 50 | 268 | 1.0 | 3.0 | 0.00 | 0.00 | 0.00 | 65 | 1020.1 |
| 20260502212010 | 50 | 263 | 1.0 | 2.0 | 0.00 | 0.00 | 0.00 | 66 | 1020.2 |
| 20260502211505 | 50 | 247 | 1.0 | 2.0 | 0.00 | 0.00 | 0.00 | 67 | 1020.2 |
| 20260502211007 | 50 | 249 | 1.0 | 2.0 | 0.00 | 0.00 | 0.00 | 67 | 1020.2 |
| 20260502210507 | 50 | 247 | 1.0 | 2.0 | 0.00 | 0.00 | 0.00 | 67 | 1020.2 |
| 20260502210005 | 50 | 247 | 1.0 | 2.0 | 0.00 | 0.00 | 0.00 | 67 | 1020.3 |
| 20260502205507 | 50 | 247 | 0.0 | 1.0 | 0.00 | 0.00 | 0.00 | 66 | 1020.4 |
| 20260502204507 | 51 | 247 | 1.0 | 2.0 | 0.00 | 0.00 | 0.00 | 63 | 1020.3 |
| 20260502203508 | 52 | 254 | 0.0 | 2.0 | 0.00 | 0.00 | 0.00 | 62 | 1020.4 |
| 20260502203007 | 52 | 251 | 1.0 | 2.0 | 0.00 | 0.00 | 0.00 | 62 | 1020.4 |
| 20260502202506 | 51 | 230 | 1.0 | 2.0 | 0.00 | 0.00 | 0.00 | 62 | 1020.4 |
| 20260502202007 | 52 | 260 | 0.0 | 1.0 | 0.00 | 0.00 | 0.00 | 61 | 1020.4 |
| 20260502201507 | 52 | 260 | 1.0 | 2.0 | 0.00 | 0.00 | 0.00 | 60 | 1020.4 |
| 20260502200006 | 52 | 255 | 1.0 | 3.0 | 0.00 | 0.00 | 0.00 | 58 | 1020.4 |
| 20260502195505 | 52 | 255 | 2.0 | 3.0 | 0.00 | 0.00 | 0.00 | 57 | 1020.4 |
| 20260502195006 | 53 | 256 | 1.0 | 2.0 | 0.00 | 0.00 | 0.00 | 57 | 1020.4 |
| 20260502194507 | 52 | 249 | 0.0 | 1.0 | 0.00 | 0.00 | 0.00 | 57 | 1020.3 |
| 20260502194006 | 52 | 249 | 0.0 | 2.0 | 0.00 | 0.00 | 0.00 | 57 | 1020.3 |
| 20260502193505 | 53 | 250 | 0.0 | 2.0 | 0.00 | 0.00 | 0.00 | 57 | 1020.4 |
| 20260502192505 | 54 | 263 | 2.0 | 3.0 | 0.00 | 0.00 | 0.00 | 54 | 1020.4 |
| 20260502192008 | 54 | 250 | 1.0 | 3.0 | 0.00 | 0.00 | 0.00 | 53 | 1020.4 |
| 20260502191505 | 54 | 253 | 1.0 | 3.0 | 0.00 | 0.00 | 0.00 | 53 | 1020.4 |
| 20260502191006 | 54 | 253 | 0.0 | 1.0 | 0.00 | 0.00 | 0.00 | 53 | 1020.2 |
| 20260502185505 | 54 | 247 | 0.0 | 0.0 | 0.00 | 0.00 | 0.00 | 52 | 1020.2 |
| 20260502185007 | 55 | 247 | 0.0 | 1.0 | 0.00 | 0.00 | 0.00 | 51 | 1020.1 |
| 20260502184506 | 55 | 247 | 0.0 | 2.0 | 0.00 | 0.00 | 0.00 | 51 | 1020.1 |
| 20260502184005 | 55 | 250 | 0.0 | 2.0 | 0.00 | 0.00 | 0.00 | 51 | 1020.1 |
| 20260502183513 | 56 | 270 | 1.0 | 2.0 | 0.00 | 0.00 | 0.00 | 50 | 1020.1 |
| 20260502183010 | 57 | 276 | 0.0 | 2.0 | 0.00 | 0.00 | 0.00 | 47 | 1020.1 |
| 20260502181505 | 58 | 21 | 1.0 | 3.0 | 0.00 | 0.00 | 0.00 | 44 | 1020.0 |
| 20260502181005 | 58 | 49 | 1.0 | 3.0 | 0.00 | 0.00 | 0.00 | 44 | 1019.9 |
| 20260502180505 | 58 | 6 | 1.0 | 3.0 | 0.00 | 0.00 | 0.00 | 43 | 1019.9 |
| 20260502170505 | 61 | 50 | 4.0 | 9.0 | 0.00 | 0.00 | 0.00 | 35 | 1019.6 |
| 20260502164007 | 62 | 1 | 2.0 | 7.0 | 0.00 | 0.00 | 0.00 | 35 | 1019.6 |
| 20260502163007 | 62 | 49 | 4.0 | 8.0 | 0.00 | 0.00 | 0.00 | 35 | 1019.6 |
| 20260502162506 | 63 | 8 | 3.0 | 7.0 | 0.00 | 0.00 | 0.00 | 34 | 1019.6 |
| 20260502162006 | 63 | 35 | 4.0 | 8.0 | 0.00 | 0.00 | 0.00 | 33 | 1019.6 |
| 20260502161519 | 63 | 31 | 3.0 | 7.0 | 0.00 | 0.00 | 0.00 | 34 | 1019.5 |
| 20260502161006 | 63 | 321 | 3.0 | 7.0 | 0.00 | 0.00 | 0.00 | 34 | 1019.6 |
| 20260502160506 | 63 | 36 | 6.0 | 10.0 | 0.00 | 0.00 | 0.00 | 35 | 1019.6 |
| 20260502152010 | 63 | 51 | 6.0 | 16.0 | 0.00 | 0.00 | 0.00 | 35 | 1019.9 |
| 20260502151505 | 63 | 43 | 7.0 | 15.0 | 0.00 | 0.00 | 0.00 | 33 | 1020.0 |
| 20260502150507 | 64 | 49 | 7.0 | 13.0 | 0.00 | 0.00 | 0.00 | 27 | 1020.1 |
| 20260502130505 | 63 | 39 | 6.0 | 15.0 | 0.00 | 0.00 | 0.00 | 35 | 1020.4 |
| 20260502123511 | 63 | 56 | 7.0 | 15.0 | 0.00 | 0.00 | 0.00 | 35 | 1020.5 |
| 20260502123005 | 63 | 55 | 6.0 | 16.0 | 0.00 | 0.00 | 0.00 | 38 | 1020.5 |
| 20260502122005 | 63 | 52 | 8.0 | 15.0 | 0.00 | 0.00 | 0.00 | 36 | 1020.6 |
| 20260502121010 | 63 | 49 | 6.0 | 15.0 | 0.00 | 0.00 | 0.00 | 34 | 1020.7 |
| 20260502120505 | 63 | 53 | 8.0 | 18.0 | 0.00 | 0.00 | 0.00 | 35 | 1020.7 |
| 20260502115010 | 63 | 44 | 11.0 | 21.0 | 0.00 | 0.00 | 0.00 | 39 | 1020.6 |
| 20260502114507 | 63 | 57 | 8.0 | 17.0 | 0.00 | 0.00 | 0.00 | 38 | 1020.6 |
| 20260502113010 | 63 | 48 | 10.0 | 17.0 | 0.00 | 0.00 | 0.00 | 35 | 1020.8 |
| 20260502112505 | 63 | 48 | 10.0 | 20.0 | 0.00 | 0.00 | 0.00 | 36 | 1020.8 |
| 20260502112010 | 62 | 51 | 6.0 | 20.0 | 0.00 | 0.00 | 0.00 | 39 | 1020.8 |
| 20260502111010 | 62 | 47 | 10.0 | 20.0 | 0.00 | 0.00 | 0.00 | 38 | 1020.8 |
| 20260502110510 | 62 | 56 | 8.0 | 15.0 | 0.00 | 0.00 | 0.00 | 37 | 1020.9 |
| 20260502110010 | 62 | 35 | 12.0 | 22.0 | 0.00 | 0.00 | 0.00 | 34 | 1020.9 |
| 20260502105507 | 63 | 43 | 9.0 | 20.0 | 0.00 | 0.00 | 0.00 | 36 | 1020.9 |
| 20260502105007 | 62 | 48 | 9.0 | 17.0 | 0.00 | 0.00 | 0.00 | 38 | 1020.9 |
| 20260502104510 | 62 | 45 | 7.0 | 16.0 | 0.00 | 0.00 | 0.00 | 37 | 1021.0 |
| 20260502104005 | 62 | 34 | 8.0 | 17.0 | 0.00 | 0.00 | 0.00 | 37 | 1021.0 |
| 20260502103505 | 62 | 42 | 7.0 | 18.0 | 0.00 | 0.00 | 0.00 | 37 | 1021.0 |
| 20260502103006 | 62 | 56 | 8.0 | 18.0 | 0.00 | 0.00 | 0.00 | 38 | 1021.1 |
| 20260502102505 | 62 | 48 | 10.0 | 20.0 | 0.00 | 0.00 | 0.00 | 36 | 1021.1 |
| 20260502102011 | 62 | 45 | 12.0 | 20.0 | 0.00 | 0.00 | 0.00 | 37 | 1021.0 |
| 20260502101508 | 62 | 43 | 7.0 | 16.0 | 0.00 | 0.00 | 0.00 | 40 | 1021.0 |
| 20260502100506 | 62 | 49 | 12.0 | 20.0 | 0.00 | 0.00 | 0.00 | 42 | 1020.9 |
| 20260502091506 | 62 | 37 | 10.0 | 21.0 | 0.00 | 0.00 | 0.00 | 41 | 1021.0 |
| 20260502091005 | 62 | 29 | 10.0 | 18.0 | 0.00 | 0.00 | 0.00 | 39 | 1021.0 |
| 20260502090507 | 61 | 63 | 11.0 | 20.0 | 0.00 | 0.00 | 0.00 | 39 | 1021.1 |
| 20260502071007 | 58 | 62 | 7.0 | 14.0 | 0.00 | 0.00 | 0.00 | 53 | 1021.1 |
| 20260502070506 | 58 | 47 | 6.0 | 12.0 | 0.00 | 0.00 | 0.00 | 55 | 1021.1 |
| 20260502070006 | 58 | 47 | 6.0 | 10.0 | 0.00 | 0.00 | 0.00 | 57 | 1021.0 |
| 20260502065507 | 58 | 53 | 6.0 | 12.0 | 0.00 | 0.00 | 0.00 | 60 | 1021.0 |
| 20260502064505 | 57 | 44 | 5.0 | 13.0 | 0.00 | 0.00 | 0.00 | 64 | 1021.0 |
| 20260502063506 | 57 | 34 | 5.0 | 12.0 | 0.00 | 0.00 | 0.00 | 63 | 1021.0 |
| 20260502063007 | 57 | 46 | 3.0 | 8.0 | 0.00 | 0.00 | 0.00 | 65 | 1021.0 |
| 20260502062506 | 56 | 46 | 4.0 | 8.0 | 0.00 | 0.00 | 0.00 | 66 | 1021.0 |
| 20260502061505 | 56 | 48 | 5.0 | 8.0 | 0.00 | 0.00 | 0.00 | 67 | 1021.0 |
| 20260502061006 | 56 | 43 | 3.0 | 8.0 | 0.00 | 0.00 | 0.00 | 68 | 1021.0 |
| 20260502060505 | 55 | 41 | 3.0 | 7.0 | 0.00 | 0.00 | 0.00 | 68 | 1021.0 |
| 20260502060005 | 55 | 49 | 4.0 | 8.0 | 0.00 | 0.00 | 0.00 | 68 | 1021.0 |
| 20260502055514 | 55 | 51 | 2.0 | 5.0 | 0.00 | 0.00 | 0.00 | 70 | 1021.0 |
| 20260502054512 | 54 | 56 | 3.0 | 7.0 | 0.00 | 0.00 | 0.00 | 70 | 1021.0 |
| 20260502054005 | 54 | 47 | 3.0 | 9.0 | 0.00 | 0.00 | 0.00 | 71 | 1021.0 |
| 20260502053506 | 53 | 40 | 2.0 | 5.0 | 0.00 | 0.00 | 0.00 | 71 | 1020.9 |
| 20260502053005 | 53 | 44 | 2.0 | 3.0 | 0.00 | 0.00 | 0.00 | 72 | 1020.9 |
| 20260502052507 | 52 | 53 | 1.0 | 3.0 | 0.00 | 0.00 | 0.00 | 73 | 1020.9 |
| 20260502052010 | 51 | 27 | 1.0 | 3.0 | 0.00 | 0.00 | 0.00 | 74 | 1020.9 |
| 20260502051506 | 51 | 87 | 1.0 | 3.0 | 0.00 | 0.00 | 0.00 | 74 | 1020.9 |
| 20260502051005 | 50 | 20 | 1.0 | 2.0 | 0.00 | 0.00 | 0.00 | 75 | 1020.9 |
| 20260502045007 | 49 | 331 | 2.0 | 6.0 | 0.00 | 0.00 | 0.00 | 75 | 1020.8 |
| 20260502044510 | 49 | 338 | 2.0 | 3.0 | 0.00 | 0.00 | 0.00 | 75 | 1020.8 |
| 20260502044006 | 48 | 26 | 2.0 | 5.0 | 0.00 | 0.00 | 0.00 | 75 | 1020.7 |
| 20260502043507 | 48 | 350 | 2.0 | 5.0 | 0.00 | 0.00 | 0.00 | 75 | 1020.7 |
| 20260502043010 | 48 | 14 | 2.0 | 5.0 | 0.00 | 0.00 | 0.00 | 75 | 1020.6 |
| 20260502042510 | 48 | 344 | 2.0 | 5.0 | 0.00 | 0.00 | 0.00 | 74 | 1020.6 |
| 20260502042007 | 48 | 27 | 2.0 | 5.0 | 0.00 | 0.00 | 0.00 | 73 | 1020.6 |
| 20260502041505 | 48 | 292 | 1.0 | 5.0 | 0.00 | 0.00 | 0.00 | 73 | 1020.5 |
| 20260502041010 | 48 | 26 | 2.0 | 3.0 | 0.00 | 0.00 | 0.00 | 73 | 1020.5 |
| 20260502040507 | 48 | 57 | 1.0 | 3.0 | 0.00 | 0.00 | 0.00 | 73 | 1020.5 |
| 20260502035507 | 48 | 312 | 1.0 | 3.0 | 0.00 | 0.00 | 0.00 | 72 | 1020.5 |
| 20260502035005 | 48 | 339 | 1.0 | 2.0 | 0.00 | 0.00 | 0.00 | 72 | 1020.4 |
| 20260502034507 | 48 | 37 | 1.0 | 3.0 | 0.00 | 0.00 | 0.00 | 72 | 1020.4 |
| 20260502034005 | 47 | 21 | 2.0 | 3.0 | 0.00 | 0.00 | 0.00 | 74 | 1020.4 |
| 20260502033510 | 47 | 46 | 1.0 | 3.0 | 0.00 | 0.00 | 0.00 | 76 | 1020.4 |
| 20260502033007 | 47 | 5 | 1.0 | 3.0 | 0.00 | 0.00 | 0.00 | 77 | 1020.5 |
| 20260502032506 | 46 | 342 | 1.0 | 3.0 | 0.00 | 0.00 | 0.00 | 77 | 1020.5 |
| 20260502031506 | 46 | 326 | 0.0 | 2.0 | 0.00 | 0.00 | 0.00 | 76 | 1020.4 |
| 20260502031008 | 47 | 1 | 0.0 | 2.0 | 0.00 | 0.00 | 0.00 | 76 | 1020.4 |
| 20260502030507 | 47 | 29 | 1.0 | 2.0 | 0.00 | 0.00 | 0.00 | 76 | 1020.4 |
| 20260502030005 | 47 | 282 | 1.0 | 2.0 | 0.00 | 0.00 | 0.00 | 76 | 1020.4 |
| 20260502025008 | 47 | 319 | 0.0 | 1.0 | 0.00 | 0.00 | 0.00 | 77 | 1020.3 |
| 20260502024505 | 47 | 324 | 0.0 | 3.0 | 0.00 | 0.00 | 0.00 | 77 | 1020.3 |
| 20260502024006 | 47 | 268 | 0.0 | 1.0 | 0.00 | 0.00 | 0.00 | 77 | 1020.4 |
| 20260502023505 | 47 | 271 | 0.0 | 1.0 | 0.00 | 0.00 | 0.00 | 76 | 1020.5 |
| 20260502022506 | 47 | 260 | 0.0 | 2.0 | 0.00 | 0.00 | 0.00 | 75 | 1020.5 |
| 20260502022007 | 48 | 26 | 0.0 | 1.0 | 0.00 | 0.00 | 0.00 | 75 | 1020.5 |